| time (UTC) | temp F | wind direction | speed MPH | gust MPH | rain 1hr in | rain 24hr in | rain mn in | humidity % | barometer mb |
| 20260831151021 | 57 | 155 | 9.0 | 0.0 | 0.00 | 0.00 | 0.00 | 33 | 1014.0 |
| 20260831150539 | 56 | 190 | 10.0 | 0.0 | 0.00 | 0.00 | 0.00 | 33 | 1013.9 |
| 20260831150058 | 56 | 186 | 11.0 | 0.0 | 0.00 | 0.00 | 0.00 | 33 | 1013.9 |
| 20260831145509 | 56 | 136 | 9.0 | 0.0 | 0.00 | 0.00 | 0.00 | 34 | 1014.1 |
| 20260831145028 | 55 | 144 | 9.0 | 0.0 | 0.00 | 0.00 | 0.00 | 35 | 1014.2 |
| 20260831144548 | 55 | 140 | 9.0 | 0.0 | 0.00 | 0.00 | 0.00 | 36 | 1014.1 |
| 20260831144003 | 54 | 149 | 8.0 | 0.0 | 0.00 | 0.00 | 0.00 | 37 | 1014.0 |
| 20260831143523 | 53 | 143 | 7.0 | 0.0 | 0.00 | 0.00 | 0.00 | 39 | 1014.0 |
| 20260831143039 | 51 | 159 | 6.0 | 0.0 | 0.00 | 0.00 | 0.00 | 41 | 1013.9 |
| 20260831142544 | 50 | 185 | 7.0 | 0.0 | 0.00 | 0.00 | 0.00 | 47 | 1013.7 |
| 20260831142049 | 49 | 203 | 7.0 | 0.0 | 0.00 | 0.00 | 0.00 | 48 | 1013.7 |
| 20260831141603 | 48 | 229 | 5.0 | 0.0 | 0.00 | 0.00 | 0.00 | 49 | 1013.6 |
| 20260831141104 | 47 | 203 | 5.0 | 0.0 | 0.00 | 0.00 | 0.00 | 51 | 1013.7 |
| 20260831140505 | 46 | 206 | 6.0 | 0.0 | 0.00 | 0.00 | 0.00 | 54 | 1013.7 |
| 20260831140015 | 45 | 202 | 6.0 | 0.0 | 0.00 | 0.00 | 0.00 | 55 | 1013.6 |
| 20260831135519 | 44 | 213 | 7.0 | 0.0 | 0.00 | 0.00 | 0.00 | 58 | 1013.4 |
| 20260831135021 | 43 | 207 | 8.0 | 0.0 | 0.00 | 0.00 | 0.00 | 59 | 1013.4 |
| 20260831134529 | 42 | 208 | 7.0 | 0.0 | 0.00 | 0.00 | 0.00 | 60 | 1013.5 |
| 20260831134040 | 41 | 212 | 7.0 | 0.0 | 0.00 | 0.00 | 0.00 | 61 | 1013.5 |
| 20260831133545 | 41 | 200 | 9.0 | 0.0 | 0.00 | 0.00 | 0.00 | 60 | 1013.3 |
| 20260831133051 | 41 | 206 | 10.0 | 0.0 | 0.00 | 0.00 | 0.00 | 60 | 1013.2 |
| 20260831132600 | 41 | 206 | 11.0 | 0.0 | 0.00 | 0.00 | 0.00 | 60 | 1013.1 |
| 20260831132002 | 41 | 215 | 11.0 | 0.0 | 0.00 | 0.00 | 0.00 | 61 | 1012.8 |
| 20260831131509 | 41 | 205 | 12.0 | 0.0 | 0.00 | 0.00 | 0.00 | 61 | 1012.9 |
| 20260831131023 | 41 | 211 | 12.0 | 0.0 | 0.00 | 0.00 | 0.00 | 62 | 1012.8 |
| 20260831130539 | 41 | 220 | 12.0 | 0.0 | 0.00 | 0.00 | 0.00 | 62 | 1012.7 |
| 20260831130052 | 40 | 215 | 11.0 | 0.0 | 0.00 | 0.00 | 0.00 | 62 | 1012.8 |
| 20260831125509 | 41 | 206 | 11.0 | 0.0 | 0.00 | 0.00 | 0.00 | 62 | 1012.7 |
| 20260831125016 | 41 | 211 | 10.0 | 0.0 | 0.00 | 0.00 | 0.00 | 62 | 1012.6 |
| 20260831124527 | 41 | 214 | 10.0 | 0.0 | 0.00 | 0.00 | 0.00 | 62 | 1012.6 |
| 20260831124029 | 41 | 217 | 9.0 | 0.0 | 0.00 | 0.00 | 0.00 | 63 | 1012.6 |
| 20260831123545 | 40 | 205 | 9.0 | 0.0 | 0.00 | 0.00 | 0.00 | 62 | 1012.5 |
| 20260831123051 | 41 | 183 | 9.0 | 0.0 | 0.00 | 0.00 | 0.00 | 62 | 1012.4 |
| 20260831122559 | 41 | 200 | 10.0 | 0.0 | 0.00 | 0.00 | 0.00 | 61 | 1012.4 |
| 20260831122020 | 42 | 209 | 11.0 | 0.0 | 0.00 | 0.00 | 0.00 | 60 | 1012.3 |
| 20260831121529 | 42 | 217 | 11.0 | 0.0 | 0.00 | 0.00 | 0.00 | 59 | 1012.4 |
| 20260831121043 | 42 | 203 | 12.0 | 0.0 | 0.00 | 0.00 | 0.00 | 59 | 1012.6 |
| 20260831120558 | 42 | 193 | 11.0 | 0.0 | 0.00 | 0.00 | 0.00 | 59 | 1012.6 |
| 20260831120105 | 42 | 167 | 11.0 | 0.0 | 0.00 | 0.00 | 0.00 | 59 | 1012.6 |
| 20260831115520 | 42 | 215 | 11.0 | 0.0 | 0.00 | 0.00 | 0.00 | 59 | 1012.6 |
| 20260831115029 | 42 | 208 | 11.0 | 0.0 | 0.00 | 0.00 | 0.00 | 59 | 1012.5 |
| 20260831114550 | 42 | 215 | 11.0 | 0.0 | 0.00 | 0.00 | 0.00 | 58 | 1012.5 |
| 20260831114055 | 42 | 197 | 11.0 | 0.0 | 0.00 | 0.00 | 0.00 | 58 | 1012.5 |
| 20260831113501 | 42 | 199 | 10.0 | 0.0 | 0.00 | 0.00 | 0.00 | 59 | 1012.5 |
| 20260831113020 | 41 | 195 | 9.0 | 0.0 | 0.00 | 0.00 | 0.00 | 60 | 1012.5 |
| 20260831112545 | 41 | 215 | 10.0 | 0.0 | 0.00 | 0.00 | 0.00 | 60 | 1012.5 |
| 20260831112054 | 41 | 213 | 9.0 | 0.0 | 0.00 | 0.00 | 0.00 | 61 | 1012.4 |
| 20260831111510 | 41 | 203 | 8.0 | 0.0 | 0.00 | 0.00 | 0.00 | 61 | 1012.3 |
| 20260831111025 | 42 | 200 | 7.0 | 0.0 | 0.00 | 0.00 | 0.00 | 60 | 1012.4 |
| 20260831110531 | 42 | 209 | 7.0 | 0.0 | 0.00 | 0.00 | 0.00 | 58 | 1012.4 |
| 20260831110056 | 42 | 211 | 8.0 | 0.0 | 0.00 | 0.00 | 0.00 | 59 | 1012.4 |
| 20260831105553 | 41 | 225 | 6.0 | 0.0 | 0.00 | 0.00 | 0.00 | 60 | 1012.2 |
| 20260831105105 | 41 | 211 | 6.0 | 0.0 | 0.00 | 0.00 | 0.00 | 60 | 1012.2 |
| 20260831104535 | 42 | 199 | 8.0 | 0.0 | 0.00 | 0.00 | 0.00 | 59 | 1012.1 |
| 20260831104042 | 42 | 194 | 8.0 | 0.0 | 0.00 | 0.00 | 0.00 | 59 | 1012.1 |
| 20260831103556 | 42 | 207 | 8.0 | 0.0 | 0.00 | 0.00 | 0.00 | 59 | 1011.9 |
| 20260831103000 | 43 | 220 | 7.0 | 0.0 | 0.00 | 0.00 | 0.00 | 56 | 1011.8 |
| 20260831102511 | 43 | 209 | 6.0 | 0.0 | 0.00 | 0.00 | 0.00 | 54 | 1012.0 |
| 20260831102033 | 43 | 205 | 7.0 | 0.0 | 0.00 | 0.00 | 0.00 | 55 | 1011.9 |
| 20260831101555 | 43 | 205 | 7.0 | 0.0 | 0.00 | 0.00 | 0.00 | 55 | 1011.9 |
| 20260831101101 | 43 | 202 | 7.0 | 0.0 | 0.00 | 0.00 | 0.00 | 55 | 1011.8 |
| 20260831100516 | 44 | 213 | 7.0 | 0.0 | 0.00 | 0.00 | 0.00 | 54 | 1011.8 |
| 20260831100025 | 44 | 196 | 7.0 | 0.0 | 0.00 | 0.00 | 0.00 | 55 | 1011.7 |
| 20260831095528 | 44 | 213 | 8.0 | 0.0 | 0.00 | 0.00 | 0.00 | 55 | 1011.8 |
| 20260831095046 | 44 | 212 | 7.0 | 0.0 | 0.00 | 0.00 | 0.00 | 54 | 1011.7 |
| 20260831094552 | 44 | 202 | 7.0 | 0.0 | 0.00 | 0.00 | 0.00 | 54 | 1011.8 |
| 20260831094106 | 44 | 196 | 7.0 | 0.0 | 0.00 | 0.00 | 0.00 | 54 | 1011.7 |
| 20260831093515 | 44 | 177 | 6.0 | 0.0 | 0.00 | 0.00 | 0.00 | 54 | 1011.6 |
| 20260831093038 | 44 | 187 | 4.0 | 0.0 | 0.00 | 0.00 | 0.00 | 54 | 1011.5 |
| 20260831092545 | 45 | 181 | 4.0 | 0.0 | 0.00 | 0.00 | 0.00 | 53 | 1011.5 |
| 20260831092059 | 45 | 162 | 5.0 | 0.0 | 0.00 | 0.00 | 0.00 | 51 | 1011.6 |
| 20260831091529 | 46 | 233 | 5.0 | 0.0 | 0.00 | 0.00 | 0.00 | 50 | 1011.6 |
| 20260831091024 | 46 | 203 | 6.0 | 0.0 | 0.00 | 0.00 | 0.00 | 51 | 1011.6 |
| 20260831090530 | 46 | 207 | 7.0 | 0.0 | 0.00 | 0.00 | 0.00 | 51 | 1011.7 |
| 20260831090042 | 46 | 200 | 10.0 | 0.0 | 0.00 | 0.00 | 0.00 | 52 | 1011.5 |
| 20260831085554 | 46 | 201 | 11.0 | 0.0 | 0.00 | 0.00 | 0.00 | 52 | 1011.5 |
| 20260831085004 | 46 | 198 | 11.0 | 0.0 | 0.00 | 0.00 | 0.00 | 52 | 1011.5 |
| 20260831084521 | 46 | 220 | 11.0 | 0.0 | 0.00 | 0.00 | 0.00 | 52 | 1011.5 |
| 20260831084038 | 46 | 187 | 10.0 | 0.0 | 0.00 | 0.00 | 0.00 | 54 | 1011.4 |
| 20260831083546 | 45 | 196 | 7.0 | 0.0 | 0.00 | 0.00 | 0.00 | 55 | 1011.3 |
| 20260831083006 | 45 | 173 | 4.0 | 0.0 | 0.00 | 0.00 | 0.00 | 53 | 1011.5 |
| 20260831082525 | 46 | 184 | 3.0 | 0.0 | 0.00 | 0.00 | 0.00 | 51 | 1011.4 |
| 20260831082040 | 46 | 185 | 4.0 | 0.0 | 0.00 | 0.00 | 0.00 | 50 | 1011.3 |
| 20260831081549 | 45 | 180 | 5.0 | 0.0 | 0.00 | 0.00 | 0.00 | 51 | 1011.3 |
| 20260831081100 | 45 | 213 | 5.0 | 0.0 | 0.00 | 0.00 | 0.00 | 55 | 1011.2 |
| 20260831080523 | 45 | 203 | 8.0 | 0.0 | 0.00 | 0.00 | 0.00 | 54 | 1011.1 |
| 20260831080031 | 45 | 196 | 9.0 | 0.0 | 0.00 | 0.00 | 0.00 | 54 | 1011.0 |
| 20260831075553 | 46 | 200 | 9.0 | 0.0 | 0.00 | 0.00 | 0.00 | 53 | 1011.0 |
| 20260831075106 | 47 | 200 | 9.0 | 0.0 | 0.00 | 0.00 | 0.00 | 50 | 1011.0 |
| 20260831074505 | 46 | 188 | 7.0 | 0.0 | 0.00 | 0.00 | 0.00 | 51 | 1011.0 |
| 20260831074016 | 46 | 195 | 8.0 | 0.0 | 0.00 | 0.00 | 0.00 | 53 | 1010.9 |
| 20260831073522 | 46 | 206 | 9.0 | 0.0 | 0.00 | 0.00 | 0.00 | 53 | 1011.0 |
| 20260831073031 | 45 | 200 | 9.0 | 0.0 | 0.00 | 0.00 | 0.00 | 54 | 1011.0 |
| 20260831072539 | 45 | 200 | 9.0 | 0.0 | 0.00 | 0.00 | 0.00 | 56 | 1010.9 |
| 20260831072053 | 45 | 215 | 8.0 | 0.0 | 0.00 | 0.00 | 0.00 | 55 | 1010.8 |
| 20260831071513 | 46 | 209 | 9.0 | 0.0 | 0.00 | 0.00 | 0.00 | 54 | 1010.7 |
| 20260831071022 | 46 | 191 | 10.0 | 0.0 | 0.00 | 0.00 | 0.00 | 53 | 1010.8 |
| 20260831070532 | 47 | 194 | 9.0 | 0.0 | 0.00 | 0.00 | 0.00 | 52 | 1010.7 |
| 20260831070044 | 47 | 179 | 8.0 | 0.0 | 0.00 | 0.00 | 0.00 | 51 | 1010.7 |
| 20260831065547 | 47 | 217 | 7.0 | 0.0 | 0.00 | 0.00 | 0.00 | 48 | 1010.8 |
| 20260831065057 | 45 | 194 | 7.0 | 0.0 | 0.00 | 0.00 | 0.00 | 54 | 1010.5 |
| 20260831064518 | 45 | 217 | 8.0 | 0.0 | 0.00 | 0.00 | 0.00 | 58 | 1010.5 |
| 20260831064038 | 46 | 218 | 8.0 | 0.0 | 0.00 | 0.00 | 0.00 | 57 | 1010.6 |
| 20260831063547 | 47 | 225 | 8.0 | 0.0 | 0.00 | 0.00 | 0.00 | 54 | 1010.5 |
| 20260831063056 | 47 | 214 | 8.0 | 0.0 | 0.00 | 0.00 | 0.00 | 52 | 1010.3 |
| 20260831062558 | 47 | 203 | 8.0 | 0.0 | 0.00 | 0.00 | 0.00 | 53 | 1010.2 |
| 20260831062009 | 47 | 199 | 8.0 | 0.0 | 0.00 | 0.00 | 0.00 | 54 | 1010.0 |
| 20260831061521 | 46 | 202 | 7.0 | 0.0 | 0.00 | 0.00 | 0.00 | 56 | 1010.1 |
| 20260831061032 | 46 | 200 | 7.0 | 0.0 | 0.00 | 0.00 | 0.00 | 56 | 1010.2 |
| 20260831060537 | 47 | 209 | 7.0 | 0.0 | 0.00 | 0.00 | 0.00 | 55 | 1010.0 |
| 20260831060046 | 47 | 192 | 7.0 | 0.0 | 0.00 | 0.00 | 0.00 | 54 | 1010.0 |
| 20260831055557 | 48 | 200 | 7.0 | 0.0 | 0.00 | 0.00 | 0.00 | 52 | 1010.0 |
| 20260831055009 | 48 | 201 | 6.0 | 0.0 | 0.00 | 0.00 | 0.00 | 52 | 1010.0 |
| 20260831054523 | 47 | 187 | 5.0 | 0.0 | 0.00 | 0.00 | 0.00 | 54 | 1009.8 |
| 20260831054033 | 47 | 180 | 5.0 | 0.0 | 0.00 | 0.00 | 0.00 | 53 | 1009.7 |
| 20260831053545 | 47 | 194 | 6.0 | 0.0 | 0.00 | 0.00 | 0.00 | 53 | 1009.8 |
| 20260831053038 | 47 | 190 | 6.0 | 0.0 | 0.00 | 0.00 | 0.00 | 54 | 1009.7 |
| 20260831052549 | 46 | 209 | 5.0 | 0.0 | 0.00 | 0.00 | 0.00 | 57 | 1009.7 |
| 20260831052101 | 46 | 202 | 4.0 | 0.0 | 0.00 | 0.00 | 0.00 | 58 | 1009.6 |
| 20260831051512 | 47 | 192 | 5.0 | 0.0 | 0.00 | 0.00 | 0.00 | 56 | 1009.6 |
| 20260831051033 | 48 | 201 | 5.0 | 0.0 | 0.00 | 0.00 | 0.00 | 54 | 1009.5 |
| 20260831050543 | 48 | 198 | 5.0 | 0.0 | 0.00 | 0.00 | 0.00 | 53 | 1009.5 |
| 20260831050049 | 48 | 190 | 5.0 | 0.0 | 0.00 | 0.00 | 0.00 | 56 | 1009.4 |
| 20260831045558 | 48 | 185 | 6.0 | 0.0 | 0.00 | 0.00 | 0.00 | 56 | 1009.5 |
| 20260831045012 | 48 | 200 | 6.0 | 0.0 | 0.00 | 0.00 | 0.00 | 56 | 1009.4 |
| 20260831044526 | 48 | 198 | 6.0 | 0.0 | 0.00 | 0.00 | 0.00 | 57 | 1009.4 |
| 20260831044034 | 48 | 193 | 6.0 | 0.0 | 0.00 | 0.00 | 0.00 | 56 | 1009.3 |
| 20260831043604 | 48 | 196 | 5.0 | 0.0 | 0.00 | 0.00 | 0.00 | 56 | 1009.4 |
| 20260831043020 | 49 | 190 | 5.0 | 0.0 | 0.00 | 0.00 | 0.00 | 53 | 1009.4 |
| 20260831042538 | 49 | 195 | 6.0 | 0.0 | 0.00 | 0.00 | 0.00 | 53 | 1009.3 |
| 20260831042054 | 49 | 202 | 5.0 | 0.0 | 0.00 | 0.00 | 0.00 | 52 | 1009.3 |
| 20260831041505 | 50 | 201 | 5.0 | 0.0 | 0.00 | 0.00 | 0.00 | 51 | 1009.2 |
| 20260831041025 | 50 | 222 | 6.0 | 0.0 | 0.00 | 0.00 | 0.00 | 50 | 1009.2 |
| 20260831040538 | 50 | 221 | 7.0 | 0.0 | 0.00 | 0.00 | 0.00 | 50 | 1009.3 |
| 20260831040052 | 50 | 219 | 7.0 | 0.0 | 0.00 | 0.00 | 0.00 | 49 | 1009.3 |
| 20260831035520 | 50 | 235 | 6.0 | 0.0 | 0.00 | 0.00 | 0.00 | 51 | 1009.4 |
| 20260831035034 | 49 | 235 | 4.0 | 0.0 | 0.00 | 0.00 | 0.00 | 52 | 1009.4 |
| 20260831034544 | 50 | 189 | 4.0 | 0.0 | 0.00 | 0.00 | 0.00 | 50 | 1009.2 |
| 20260831034052 | 51 | 194 | 4.0 | 0.0 | 0.00 | 0.00 | 0.00 | 48 | 1009.3 |
| 20260831033601 | 52 | 228 | 4.0 | 0.0 | 0.00 | 0.00 | 0.00 | 47 | 1009.2 |
| 20260831033015 | 53 | 228 | 5.0 | 0.0 | 0.00 | 0.00 | 0.00 | 46 | 1009.0 |
| 20260831032534 | 53 | 217 | 5.0 | 0.0 | 0.00 | 0.00 | 0.00 | 44 | 1009.0 |
| 20260831032047 | 53 | 236 | 4.0 | 0.0 | 0.00 | 0.00 | 0.00 | 43 | 1008.9 |
| 20260831031511 | 54 | 211 | 5.0 | 0.0 | 0.00 | 0.00 | 0.00 | 40 | 1008.9 |
| 20260831031024 | 55 | 211 | 3.0 | 0.0 | 0.00 | 0.00 | 0.00 | 36 | 1008.7 |
| 20260831030543 | 57 | 236 | 2.0 | 0.0 | 0.00 | 0.00 | 0.00 | 34 | 1008.7 |
| 20260831030055 | 56 | 218 | 2.0 | 0.0 | 0.00 | 0.00 | 0.00 | 33 | 1008.7 |
| 20260831025559 | 55 | 218 | 3.0 | 0.0 | 0.00 | 0.00 | 0.00 | 35 | 1008.5 |
| 20260831025103 | 54 | 218 | 3.0 | 0.0 | 0.00 | 0.00 | 0.00 | 38 | 1008.3 |
| 20260831024511 | 54 | 82 | 2.0 | 0.0 | 0.00 | 0.00 | 0.00 | 40 | 1008.2 |
| 20260831024036 | 56 | 80 | 2.0 | 0.0 | 0.00 | 0.00 | 0.00 | 39 | 1007.9 |
| 20260831023545 | 58 | 83 | 3.0 | 0.0 | 0.00 | 0.00 | 0.00 | 36 | 1007.9 |
| 20260831023057 | 59 | 82 | 3.0 | 0.0 | 0.00 | 0.00 | 0.00 | 34 | 1007.8 |
| 20260831022505 | 60 | 88 | 3.0 | 0.0 | 0.00 | 0.00 | 0.00 | 30 | 1007.5 |
| 20260831022024 | 61 | 157 | 2.0 | 0.0 | 0.00 | 0.00 | 0.00 | 30 | 1007.6 |
| 20260831021544 | 62 | 342 | 3.0 | 0.0 | 0.00 | 0.00 | 0.00 | 29 | 1007.4 |
| 20260831021058 | 62 | 280 | 3.0 | 0.0 | 0.00 | 0.00 | 0.00 | 28 | 1007.2 |
| 20260831020505 | 63 | 295 | 2.0 | 0.0 | 0.00 | 0.00 | 0.00 | 28 | 1007.2 |
| 20260831020018 | 64 | 295 | 3.0 | 0.0 | 0.00 | 0.00 | 0.00 | 27 | 1007.1 |
| 20260831015537 | 64 | 295 | 4.0 | 0.0 | 0.00 | 0.00 | 0.00 | 27 | 1007.1 |
| 20260831015047 | 65 | 289 | 4.0 | 0.0 | 0.00 | 0.00 | 0.00 | 25 | 1007.2 |
| 20260831014559 | 65 | 279 | 4.0 | 0.0 | 0.00 | 0.00 | 0.00 | 24 | 1007.1 |
| 20260831014102 | 65 | 285 | 3.0 | 0.0 | 0.00 | 0.00 | 0.00 | 25 | 1007.1 |
| 20260831013521 | 65 | 307 | 4.0 | 0.0 | 0.00 | 0.00 | 0.00 | 25 | 1007.1 |
| 20260831013032 | 65 | 307 | 4.0 | 0.0 | 0.00 | 0.00 | 0.00 | 24 | 1007.1 |
| 20260831012546 | 65 | 305 | 5.0 | 0.0 | 0.00 | 0.00 | 0.00 | 24 | 1007.1 |
| 20260831012052 | 66 | 306 | 4.0 | 0.0 | 0.00 | 0.00 | 0.00 | 23 | 1007.2 |
| 20260831011605 | 66 | 299 | 4.0 | 0.0 | 0.00 | 0.00 | 0.00 | 22 | 1007.2 |
| 20260831011014 | 67 | 300 | 7.0 | 0.0 | 0.00 | 0.00 | 0.00 | 22 | 1007.2 |
| 20260831010540 | 67 | 298 | 9.0 | 0.0 | 0.00 | 0.00 | 0.00 | 21 | 1007.2 |
| 20260831010058 | 68 | 315 | 10.0 | 0.0 | 0.00 | 0.00 | 0.00 | 20 | 1007.2 |
| 20260831005517 | 68 | 298 | 12.0 | 0.0 | 0.00 | 0.00 | 0.00 | 19 | 1007.2 |
| 20260831005037 | 69 | 300 | 13.0 | 0.0 | 0.00 | 0.00 | 0.00 | 18 | 1007.2 |
| 20260831004547 | 69 | 284 | 13.0 | 0.0 | 0.00 | 0.00 | 0.00 | 18 | 1007.1 |
| 20260831004059 | 69 | 292 | 12.0 | 0.0 | 0.00 | 0.00 | 0.00 | 18 | 1007.0 |
| 20260831003525 | 70 | 298 | 10.0 | 0.0 | 0.00 | 0.00 | 0.00 | 18 | 1006.9 |
| 20260831003043 | 70 | 290 | 10.0 | 0.0 | 0.00 | 0.00 | 0.00 | 18 | 1006.9 |
| 20260831002558 | 70 | 309 | 10.0 | 0.0 | 0.00 | 0.00 | 0.00 | 18 | 1006.9 |
| 20260831002016 | 70 | 311 | 10.0 | 0.0 | 0.00 | 0.00 | 0.00 | 18 | 1006.9 |
| 20260831001531 | 70 | 296 | 8.0 | 0.0 | 0.00 | 0.00 | 0.00 | 17 | 1006.9 |
| 20260831001044 | 70 | 290 | 9.0 | 0.0 | 0.00 | 0.00 | 0.00 | 18 | 1006.9 |
| 20260831000552 | 70 | 267 | 11.0 | 0.0 | 0.00 | 0.00 | 0.00 | 16 | 1006.9 |
| 20260830235525 | 70 | 289 | 9.0 | 0.0 | 0.00 | 0.00 | 0.00 | 17 | 1007.0 |
| 20260830235040 | 70 | 280 | 10.0 | 0.0 | 0.00 | 0.00 | 0.00 | 16 | 1007.0 |
| 20260830234559 | 70 | 279 | 10.0 | 0.0 | 0.00 | 0.00 | 0.00 | 15 | 1006.9 |
| 20260830234015 | 70 | 265 | 9.0 | 0.0 | 0.00 | 0.00 | 0.00 | 16 | 1007.0 |
| 20260830233536 | 70 | 277 | 9.0 | 0.0 | 0.00 | 0.00 | 0.00 | 17 | 1007.1 |
| 20260830233054 | 70 | 296 | 9.0 | 0.0 | 0.00 | 0.00 | 0.00 | 17 | 1006.9 |
| 20260830232516 | 71 | 270 | 9.0 | 0.0 | 0.00 | 0.00 | 0.00 | 15 | 1006.9 |
| 20260830232026 | 71 | 265 | 10.0 | 0.0 | 0.00 | 0.00 | 0.00 | 16 | 1007.0 |
| 20260830231541 | 71 | 296 | 11.0 | 0.0 | 0.00 | 0.00 | 0.00 | 16 | 1006.9 |
| 20260830231046 | 71 | 334 | 9.0 | 0.0 | 0.00 | 0.00 | 0.00 | 16 | 1006.7 |
| 20260830230511 | 71 | 257 | 10.0 | 0.0 | 0.00 | 0.00 | 0.00 | 16 | 1007.0 |
| 20260830230019 | 71 | 300 | 12.0 | 0.0 | 0.00 | 0.00 | 0.00 | 17 | 1006.8 |
| 20260830225531 | 71 | 265 | 12.0 | 0.0 | 0.00 | 0.00 | 0.00 | 15 | 1006.8 |
| 20260830225047 | 71 | 278 | 13.0 | 0.0 | 0.00 | 0.00 | 0.00 | 15 | 1006.8 |
| 20260830224502 | 71 | 277 | 11.0 | 0.0 | 0.00 | 0.00 | 0.00 | 16 | 1006.8 |
| 20260830224024 | 71 | 257 | 7.0 | 0.0 | 0.00 | 0.00 | 0.00 | 15 | 1006.8 |
| 20260830223533 | 70 | 234 | 8.0 | 0.0 | 0.00 | 0.00 | 0.00 | 16 | 1007.0 |
| 20260830223043 | 70 | 258 | 9.0 | 0.0 | 0.00 | 0.00 | 0.00 | 16 | 1007.1 |
| 20260830222558 | 70 | 211 | 8.0 | 0.0 | 0.00 | 0.00 | 0.00 | 17 | 1007.1 |
| 20260830222020 | 70 | 256 | 12.0 | 0.0 | 0.00 | 0.00 | 0.00 | 17 | 1007.1 |
| 20260830221531 | 70 | 300 | 11.0 | 0.0 | 0.00 | 0.00 | 0.00 | 17 | 1007.2 |
| 20260830221044 | 70 | 300 | 9.0 | 0.0 | 0.00 | 0.00 | 0.00 | 17 | 1007.2 |
| 20260830220502 | 70 | 213 | 11.0 | 0.0 | 0.00 | 0.00 | 0.00 | 16 | 1007.2 |
| 20260830220025 | 70 | 281 | 12.0 | 0.0 | 0.00 | 0.00 | 0.00 | 17 | 1007.2 |
| 20260830215536 | 70 | 250 | 11.0 | 0.0 | 0.00 | 0.00 | 0.00 | 17 | 1007.3 |
| 20260830215048 | 70 | 267 | 10.0 | 0.0 | 0.00 | 0.00 | 0.00 | 17 | 1007.2 |
| 20260830214509 | 69 | 275 | 8.0 | 0.0 | 0.00 | 0.00 | 0.00 | 16 | 1007.2 |
| 20260830214020 | 69 | 233 | 6.0 | 0.0 | 0.00 | 0.00 | 0.00 | 17 | 1007.3 |
| 20260830213542 | 68 | 263 | 6.0 | 0.0 | 0.00 | 0.00 | 0.00 | 19 | 1007.3 |
| 20260830213001 | 69 | 205 | 7.0 | 0.0 | 0.00 | 0.00 | 0.00 | 19 | 1007.3 |
| 20260830212518 | 69 | 257 | 5.0 | 0.0 | 0.00 | 0.00 | 0.00 | 19 | 1007.3 |
| 20260830212030 | 69 | 259 | 4.0 | 0.0 | 0.00 | 0.00 | 0.00 | 18 | 1007.4 |
| 20260830211543 | 69 | 188 | 6.0 | 0.0 | 0.00 | 0.00 | 0.00 | 16 | 1007.2 |
| 20260830211007 | 68 | 264 | 7.0 | 0.0 | 0.00 | 0.00 | 0.00 | 20 | 1007.3 |
| 20260830210514 | 69 | 289 | 9.0 | 0.0 | 0.00 | 0.00 | 0.00 | 21 | 1007.4 |
| 20260830210026 | 69 | 281 | 9.0 | 0.0 | 0.00 | 0.00 | 0.00 | 19 | 1007.5 |
| 20260830205535 | 68 | 304 | 6.0 | 0.0 | 0.00 | 0.00 | 0.00 | 21 | 1007.5 |
| 20260830205042 | 68 | 309 | 6.0 | 0.0 | 0.00 | 0.00 | 0.00 | 20 | 1007.5 |
| 20260830204601 | 68 | 265 | 7.0 | 0.0 | 0.00 | 0.00 | 0.00 | 20 | 1007.6 |
| 20260830204009 | 68 | 209 | 6.0 | 0.0 | 0.00 | 0.00 | 0.00 | 21 | 1007.5 |
| 20260830203517 | 68 | 215 | 8.0 | 0.0 | 0.00 | 0.00 | 0.00 | 21 | 1007.6 |
| 20260830203038 | 67 | 196 | 11.0 | 0.0 | 0.00 | 0.00 | 0.00 | 22 | 1007.7 |
| 20260830202600 | 67 | 250 | 13.0 | 0.0 | 0.00 | 0.00 | 0.00 | 21 | 1007.7 |
| 20260830202020 | 67 | 259 | 11.0 | 0.0 | 0.00 | 0.00 | 0.00 | 23 | 1007.7 |
| 20260830201537 | 66 | 263 | 12.0 | 0.0 | 0.00 | 0.00 | 0.00 | 22 | 1007.7 |
| 20260830201040 | 66 | 286 | 14.0 | 0.0 | 0.00 | 0.00 | 0.00 | 25 | 1007.8 |
| 20260830200549 | 67 | 293 | 12.0 | 0.0 | 0.00 | 0.00 | 0.00 | 25 | 1007.6 |
| 20260830200010 | 66 | 290 | 7.0 | 0.0 | 0.00 | 0.00 | 0.00 | 25 | 1007.6 |
| 20260830195524 | 66 | 242 | 6.0 | 0.0 | 0.00 | 0.00 | 0.00 | 24 | 1007.6 |
| 20260830195037 | 65 | 275 | 6.0 | 0.0 | 0.00 | 0.00 | 0.00 | 26 | 1007.7 |
| 20260830194550 | 65 | 229 | 10.0 | 0.0 | 0.00 | 0.00 | 0.00 | 24 | 1007.5 |
| 20260830194015 | 65 | 209 | 13.0 | 0.0 | 0.00 | 0.00 | 0.00 | 23 | 1007.5 |
| 20260830193527 | 65 | 250 | 13.0 | 0.0 | 0.00 | 0.00 | 0.00 | 26 | 1007.5 |
| 20260830193050 | 65 | 314 | 12.0 | 0.0 | 0.00 | 0.00 | 0.00 | 29 | 1007.4 |
| 20260830192557 | 65 | 297 | 11.0 | 0.0 | 0.00 | 0.00 | 0.00 | 29 | 1007.4 |
| 20260830192004 | 65 | 284 | 11.0 | 0.0 | 0.00 | 0.00 | 0.00 | 28 | 1007.5 |
| 20260830191526 | 64 | 272 | 12.0 | 0.0 | 0.00 | 0.00 | 0.00 | 29 | 1007.3 |
| 20260830191036 | 65 | 326 | 14.0 | 0.0 | 0.00 | 0.00 | 0.00 | 29 | 1007.4 |
| 20260830190546 | 64 | 299 | 13.0 | 0.0 | 0.00 | 0.00 | 0.00 | 31 | 1007.3 |
| 20260830190058 | 64 | 313 | 13.0 | 0.0 | 0.00 | 0.00 | 0.00 | 31 | 1007.5 |
| 20260830185516 | 64 | 319 | 13.0 | 0.0 | 0.00 | 0.00 | 0.00 | 31 | 1007.6 |
| 20260830185034 | 63 | 284 | 13.0 | 0.0 | 0.00 | 0.00 | 0.00 | 35 | 1007.7 |
| 20260830184543 | 63 | 300 | 13.0 | 0.0 | 0.00 | 0.00 | 0.00 | 36 | 1007.2 |
| 20260830184059 | 62 | 271 | 14.0 | 0.0 | 0.00 | 0.00 | 0.00 | 35 | 1007.3 |
| 20260830183511 | 63 | 288 | 14.0 | 0.0 | 0.00 | 0.00 | 0.00 | 37 | 1007.4 |
| 20260830183024 | 62 | 298 | 13.0 | 0.0 | 0.00 | 0.00 | 0.00 | 40 | 1007.3 |
| 20260830182534 | 62 | 281 | 11.0 | 0.0 | 0.00 | 0.00 | 0.00 | 40 | 1007.4 |
| 20260830182047 | 61 | 321 | 8.0 | 0.0 | 0.00 | 0.00 | 0.00 | 44 | 1007.3 |
| 20260830181509 | 60 | 355 | 8.0 | 0.0 | 0.00 | 0.00 | 0.00 | 48 | 1007.4 |
| 20260830181028 | 60 | 351 | 9.0 | 0.0 | 0.00 | 0.00 | 0.00 | 50 | 1007.7 |
| 20260830180541 | 60 | 355 | 5.0 | 0.0 | 0.00 | 0.00 | 0.00 | 51 | 1007.7 |
| 20260830180107 | 59 | 323 | 6.0 | 0.0 | 0.00 | 0.00 | 0.00 | 51 | 1007.6 |
| 20260830175510 | 59 | 192 | 7.0 | 0.0 | 0.00 | 0.00 | 0.00 | 51 | 1007.4 |
| 20260830175031 | 59 | 330 | 7.0 | 0.0 | 0.00 | 0.00 | 0.00 | 55 | 1007.5 |
| 20260830174542 | 59 | 5 | 8.0 | 0.0 | 0.00 | 0.00 | 0.00 | 54 | 1007.6 |
| 20260830174049 | 59 | 51 | 8.0 | 0.0 | 0.00 | 0.00 | 0.00 | 60 | 1007.5 |
| 20260830173559 | 58 | 9 | 7.0 | 0.0 | 0.00 | 0.00 | 0.00 | 63 | 1007.5 |
| 20260830173004 | 57 | 22 | 7.0 | 0.0 | 0.00 | 0.00 | 0.00 | 64 | 1007.5 |
| 20260830172512 | 57 | 32 | 7.0 | 0.0 | 0.00 | 0.00 | 0.00 | 65 | 1007.5 |
| 20260830172016 | 57 | 34 | 7.0 | 0.0 | 0.00 | 0.00 | 0.00 | 68 | 1007.4 |
| 20260830171537 | 57 | 34 | 6.0 | 0.0 | 0.00 | 0.00 | 0.00 | 68 | 1007.3 |
| 20260830171038 | 56 | 5 | 6.0 | 0.0 | 0.00 | 0.00 | 0.00 | 70 | 1007.2 |
| 20260830170555 | 56 | 53 | 6.0 | 0.0 | 0.00 | 0.00 | 0.00 | 71 | 1007.2 |
| 20260830170106 | 56 | 20 | 7.0 | 0.0 | 0.00 | 0.00 | 0.00 | 70 | 1007.3 |
| 20260830165509 | 55 | 14 | 7.0 | 0.0 | 0.00 | 0.00 | 0.00 | 72 | 1007.2 |
| 20260830165012 | 55 | 17 | 8.0 | 0.0 | 0.00 | 0.00 | 0.00 | 73 | 1007.2 |
| 20260830164520 | 55 | 9 | 8.0 | 0.0 | 0.00 | 0.00 | 0.00 | 74 | 1007.2 |
| 20260830164029 | 55 | 5 | 7.0 | 0.0 | 0.00 | 0.00 | 0.00 | 75 | 1007.2 |
| 20260830163548 | 55 | 355 | 7.0 | 0.0 | 0.00 | 0.00 | 0.00 | 76 | 1007.1 |
| 20260830163058 | 54 | 350 | 7.0 | 0.0 | 0.00 | 0.00 | 0.00 | 77 | 1007.3 |
| 20260830162503 | 54 | 19 | 8.0 | 0.0 | 0.00 | 0.00 | 0.00 | 77 | 1007.2 |
| 20260830162018 | 54 | 20 | 7.0 | 0.0 | 0.00 | 0.00 | 0.00 | 79 | 1007.2 |
| 20260830161537 | 54 | 9 | 7.0 | 0.0 | 0.00 | 0.00 | 0.00 | 78 | 1007.1 |
| 20260830161050 | 53 | 24 | 7.0 | 0.0 | 0.00 | 0.00 | 0.00 | 78 | 1007.1 |
| 20260830160503 | 53 | 14 | 8.0 | 0.0 | 0.00 | 0.00 | 0.00 | 80 | 1007.0 |
| 20260830160029 | 52 | 360 | 9.0 | 0.0 | 0.00 | 0.00 | 0.00 | 79 | 1007.0 |
| 20260830155545 | 52 | 355 | 9.0 | 0.0 | 0.00 | 0.00 | 0.00 | 80 | 1006.9 |
| 20260830155057 | 52 | 355 | 9.0 | 0.0 | 0.00 | 0.00 | 0.00 | 81 | 1006.9 |
| 20260830154515 | 52 | 333 | 10.0 | 0.0 | 0.00 | 0.00 | 0.00 | 80 | 1006.9 |
| 20260830154042 | 52 | 355 | 10.0 | 0.0 | 0.00 | 0.00 | 0.00 | 81 | 1006.9 |
| 20260830153551 | 52 | 345 | 10.0 | 0.0 | 0.00 | 0.00 | 0.00 | 81 | 1006.9 |
| 20260830153005 | 52 | 338 | 11.0 | 0.0 | 0.00 | 0.00 | 0.00 | 83 | 1006.8 |
| 20260830152525 | 52 | 346 | 12.0 | 0.0 | 0.00 | 0.00 | 0.00 | 82 | 1006.7 |
| 20260830152044 | 52 | 346 | 13.0 | 0.0 | 0.00 | 0.00 | 0.00 | 82 | 1006.7 |
| 20260830151602 | 52 | 344 | 12.0 | 0.0 | 0.00 | 0.00 | 0.00 | 82 | 1006.6 |